Showing default

FLOCK 4G 33, 62685

Orbit data source: Space-Track

FLOCK 4G 33, 62685 is a payload satellite owned by Planet (US) in SSO that was launched on Tue, 14 Jan 2025 UTC via an FALCON 9 launch vehicle from the Air Force Western Test Range (AFWTR). Payload-class satellites include a variety of spacecraft equipped with specific instruments for various scientific and technological missions. These include communications satellites like Starlink; space stations such as the ISS; scientific satellites like the Hubble; Earth observation satellites from companies like Planet Labs, Umbra, and HawkEye 360; GPS; miniature CubeSats for education and research; and military/defense satellites.

Loading next visibility...
Identifier
62685, 2025-009CE
Orbit
SSO
Country
Flag of USUS
Related business
Manufacturer
Planet
Mission
Operational Commercial Imaging
Bus & Motor
CUBESAT 3U, Unknown motor
Mass
5.7 kg wet, 5.7 kg dry
Launch date (UTC)
2025-01-14 (1 year ago)
Launch vehicle
FALCON 9
Launch site
Air Force Western Test Range (AFWTR)
Object type
Payload
Rocket body
Debris
Shape & HBR
Box + 2 Pan, 1.0 m
Radar Cross Section
0.072 m², Medium (>0.1 m² and < 1m²)

Expand to show TLE details & history
Last TLE update: 15 hours ago

TLE from 15 hours ago
0 FLOCK 4G 33
1 62685U 25009CE  26034.48808842  .00008705  00000-0  36644-3 0  9996
2 62685  97.4054 116.0184 0007028  83.7692 276.4345 15.23585329 58435
Epoch: 2026-02-03T11:42Z
TLE epoch observation values (Epoch: 2026-02-03T11:42:50.839Z)
Latitude
-0.00007°
Longitude
166.63828°
Altitude
497.594 km
Speed
7.616 km/s
True Right ascension
07h 44m 04s
True Declination
0° 00' 00"
Sunlit
Object was in full shadow at epoch
Visualization orbit readout
Latitude
Unknown
Longitude
Unknown
Altitude
Unknown
Speed
Unknown
Apparent Right ascension
Unknown
Apparent Declination
Unknown
Sunlit
N/A
Visualization observer readout
Local Sidereal Time
04:12:01
Azimuth
Unknown
Elevation
Unknown
Doppler factor
Unknown
Orbital elements
Apogee altitude
496.826 km
Perigee altitude
487.169 km
Semi-major axis
6,870.135 km
Eccentricity
0.0007
Inclination
97.4054°
RAAN
116.0184°
Arg. of periapsis
83.7692°
True anomaly
276.35446°
Mean anomaly
276.4345°
Eccentric anomaly
276.39448°
Mean motion
3.81149 °/min
Orbital period
94.45 mins
BSTAR
0.00036644
Loading maneuver chart data...
Computing Atmospheric mass density...
Loading historical data...
Loading historical data...
Loading historical data...
Loading historical data...
Loading historical data...
Loading historical data...
Loading historical data...

Documentation

Showing up to 5 results
|